Location: Ravensburg
(47.7866°N, 9.6124°E)
Time: 09:55:50
(UTC+02:00)

METEOR M2 - Pass Details

Date: 21 March 2026
Orbit: 817 x 824 km, 98.5° (Epoch: 18 April)

Event Time Altitude Azimuth Distance (km) Brightness Sun altitude
Rises 05:15:40 0° 11° (N) 3,373 ? -12.0°
Reaches altitude 10° 05:18:03 10° 8° (N) 2,436 ? -11.6°
Maximum altitude 05:23:21 61° 289° (WNW) 938 ? -10.7°
Drops below altitude 10° 05:28:36 10° 211° (SSW) 2,417 ? -9.9°
Sets 05:30:58 0° 208° (SSW) 3,345 ? -9.5°
